EW5474 Weather Reports


Display with metric or nautical units.
time (UTC)temp
F
wind
direction
speed
MPH
gust
MPH
rain 1hr
in
rain 24hr
in
rain mn
in
humidity
%
barometer
mb
20260903063616 77 117 0.0 0.0 0.00 0.00 0.00 86 1016.0
20260903063110 77 117 0.0 0.0 0.00 0.00 0.00 86 1016.0
20260903062604 77 117 0.0 0.0 0.00 0.00 0.00 86 1015.9
20260903062058 77 117 0.0 0.0 0.00 0.00 0.00 87 1016.0
20260903061551 77 117 0.0 0.0 0.00 0.00 0.00 87 1016.2
20260903061046 77 117 0.0 0.0 0.00 0.00 0.00 87 1016.2
20260903060552 77 117 0.0 0.0 0.00 0.00 0.00 86 1016.2
20260903060034 77 117 0.0 0.0 0.00 0.00 0.00 86 1016.4
20260903055759 77 117 0.0 0.0 0.00 0.00 0.00 86 1016.5
20260903055022 77 117 0.0 0.0 0.00 0.00 0.00 86 1016.5
20260903054517 77 117 0.0 0.0 0.00 0.00 0.00 86 1016.5
20260903054010 78 117 0.0 0.0 0.00 0.00 0.00 86 1016.6
20260903053504 78 117 0.0 0.0 0.00 0.00 0.00 86 1016.4
20260903052958 78 182 0.0 0.0 0.00 0.00 0.00 86 1016.6
20260903052452 78 182 0.0 0.0 0.00 0.00 0.00 86 1016.7
20260903052218 78 182 0.0 0.0 0.00 0.00 0.00 86 1016.5
20260903051439 78 182 0.0 0.0 0.00 0.00 0.00 86 1016.7
20260903050934 78 182 0.0 0.0 0.00 0.00 0.00 86 1016.6
20260903050428 78 182 0.0 0.0 0.00 0.00 0.00 86 1016.7
20260903050153 78 182 0.0 0.0 0.00 0.00 0.00 86 1016.5
20260903045416 78 171 0.0 0.0 0.00 0.00 0.00 86 1016.5
20260903045142 78 171 0.0 0.0 0.00 0.00 0.00 86 1016.4
20260903044417 78 171 0.0 0.0 0.00 0.00 0.00 86 1016.4
20260903043858 78 188 0.0 0.0 0.00 0.00 0.00 86 1016.5
20260903043623 78 161 0.0 0.0 0.00 0.00 0.00 86 1016.4
20260903043118 78 184 0.0 0.0 0.00 0.00 0.00 85 1016.3
20260903042340 78 184 0.0 0.0 0.00 0.00 0.00 85 1016.3
20260903041834 78 184 0.0 0.0 0.00 0.00 0.00 85 1016.2
20260903041328 78 184 0.0 0.0 0.00 0.00 0.00 85 1016.2
20260903040822 78 184 0.0 0.0 0.00 0.00 0.00 85 1016.2
20260903040316 78 150 0.0 0.0 0.00 0.00 0.00 84 1016.2
20260903040041 78 150 0.0 0.0 0.00 0.00 0.00 84 1016.1
20260903035306 78 150 0.0 0.0 0.00 0.00 0.00 85 1016.2
20260903034758 78 183 0.0 0.0 0.00 0.00 0.00 85 1016.3
20260903034252 78 140 0.0 0.0 0.00 0.00 0.00 84 1016.5
20260903033746 78 140 0.0 0.0 0.00 0.00 0.00 84 1016.7
20260903033511 78 140 0.0 0.0 0.00 0.00 0.00 84 1016.7
20260903032734 78 140 0.0 0.0 0.00 0.00 0.00 84 1016.5
20260903032227 79 140 0.0 0.0 0.00 0.00 0.00 84 1016.5
20260903031722 79 140 0.0 0.0 0.00 0.00 0.00 84 1016.4
20260903031216 79 140 0.0 0.0 0.00 0.00 0.00 84 1016.4
20260903030710 79 140 0.0 0.0 0.00 0.00 0.00 84 1016.3
20260903030204 79 140 0.0 0.0 0.00 0.00 0.00 84 1016.4
20260903025658 79 140 0.0 0.0 0.00 0.00 0.00 84 1016.5
20260903025152 79 140 0.0 0.0 0.00 0.00 0.00 84 1016.6
20260903024646 79 140 0.0 0.0 0.00 0.00 0.00 84 1016.7
20260903024140 79 168 0.0 0.0 0.00 0.00 0.00 84 1016.8
20260903023633 79 168 0.0 0.0 0.00 0.00 0.00 83 1016.8
20260903023128 79 168 0.0 0.0 0.00 0.00 0.00 83 1016.9
20260903022622 79 168 0.0 0.0 0.00 0.00 0.00 83 1017.0
20260903022119 79 168 0.0 0.0 0.00 0.00 0.00 83 1016.9
20260903021619 79 168 0.0 0.0 0.00 0.00 0.00 83 1016.9
20260903021131 79 168 0.0 0.0 0.00 0.00 0.00 83 1017.0
20260903020631 79 196 0.0 0.0 0.00 0.00 0.00 83 1017.3
20260903020117 79 196 0.0 0.0 0.00 0.00 0.00 83 1017.4
20260903015617 80 196 0.0 0.0 0.00 0.00 0.00 83 1017.5
20260903015345 80 196 0.0 0.0 0.00 0.00 0.00 83 1017.5
20260903014843 80 196 0.0 0.0 0.00 0.00 0.00 83 1017.3
20260903014110 80 196 0.0 0.0 0.00 0.00 0.00 83 1017.3
20260903013608 80 196 0.0 0.0 0.00 0.00 0.00 83 1017.3
20260903013109 80 196 0.0 0.0 0.00 0.00 0.00 83 1017.0
20260903012608 80 198 0.0 0.0 0.00 0.00 0.00 83 1016.9
20260903012105 80 152 0.0 0.0 0.00 0.00 0.00 83 1016.9
20260903011605 80 149 0.0 0.0 0.00 0.00 0.00 83 1016.8
20260903011106 80 140 0.0 0.0 0.00 0.00 0.00 82 1016.7
20260903010605 80 173 0.0 0.0 0.00 0.00 0.00 82 1016.6
20260903010342 80 178 0.0 4.0 0.00 0.00 0.00 82 1016.6
20260903005605 80 180 1.0 4.0 0.00 0.00 0.00 82 1016.6
20260903005106 80 148 0.0 2.0 0.00 0.00 0.00 82 1016.3
20260903004831 80 338 0.0 0.0 0.00 0.00 0.00 81 1016.2
20260903004054 80 338 0.0 0.0 0.00 0.00 0.00 80 1016.2
20260903003819 80 338 0.0 0.0 0.00 0.00 0.00 80 1016.2
20260903003314 80 338 0.0 0.0 0.00 0.00 0.00 79 1016.5
20260903002537 80 338 0.0 0.0 0.00 0.00 0.00 79 1016.6
20260903002030 80 338 0.0 0.0 0.00 0.00 0.00 79 1016.5
20260903001754 80 338 0.0 0.0 0.00 0.00 0.00 79 1016.4
20260903001018 80 338 0.0 0.0 0.00 0.00 0.00 79 1016.4
20260903000512 80 338 0.0 0.0 0.00 0.00 0.00 79 1016.1
20260903000006 80 338 0.0 0.0 0.00 0.00 0.00 79 1016.0
20260902235459 81 338 0.0 0.0 0.00 0.00 0.00 79 1015.9
20260902234954 81 196 0.0 0.0 0.00 0.00 0.00 78 1015.5
20260902234448 81 197 0.0 0.0 0.00 0.00 0.00 78 1015.3
20260902233942 81 197 0.0 0.0 0.00 0.00 0.00 78 1015.3
20260902233436 81 197 0.0 0.0 0.00 0.00 0.00 77 1015.5
20260902232930 81 197 0.0 0.0 0.00 0.00 0.00 77 1015.7
20260902232655 81 197 0.0 0.0 0.00 0.00 0.00 78 1015.7
20260902231917 81 194 0.0 0.0 0.00 0.00 0.00 77 1015.8
20260902231412 81 194 0.0 0.0 0.00 0.00 0.00 77 1015.9
20260902230906 81 194 0.0 1.0 0.00 0.00 0.00 77 1015.8
20260902230400 81 194 0.0 1.0 0.00 0.00 0.00 77 1015.8
20260902225853 81 172 1.0 5.0 0.00 0.00 0.00 77 1015.8
20260902225348 81 172 1.0 5.0 0.00 0.00 0.00 77 1015.7
20260902224842 81 190 1.0 4.0 0.00 0.00 0.00 77 1015.9
20260902224336 82 128 2.0 4.0 0.00 0.00 0.00 76 1016.0
20260902223843 82 195 2.0 5.0 0.00 0.00 0.00 77 1016.1
20260902223324 82 172 2.0 5.0 0.00 0.00 0.00 76 1016.2
20260902222818 82 157 1.0 3.0 0.00 0.00 0.00 76 1016.6
20260902222312 82 173 1.0 5.0 0.00 0.00 0.00 77 1016.7
20260902222036 82 152 2.0 5.0 0.00 0.00 0.00 76 1016.5
20260902221300 82 159 1.0 6.0 0.00 0.00 0.00 76 1016.7
20260902221024 82 55 1.0 6.0 0.00 0.00 0.00 76 1017.0
20260902220248 82 91 2.0 5.0 0.00 0.00 0.00 77 1017.3
20260902215741 82 172 3.0 7.0 0.00 0.00 0.00 77 1017.5
20260902215236 82 129 2.0 8.0 0.00 0.00 0.00 77 1017.5
20260902214730 82 182 3.0 8.0 0.00 0.00 0.00 78 1017.8
20260902214224 82 77 3.0 11.0 0.00 0.00 0.00 79 1017.9
20260902213718 83 30 3.0 15.0 0.00 0.00 0.00 79 1018.1
20260902213443 83 333 3.0 15.0 0.00 0.00 0.00 79 1017.9
20260902212809 83 114 3.0 10.0 0.00 0.00 0.00 79 1017.7
20260902211654 84 329 2.0 9.0 0.00 0.00 0.00 78 1017.6
20260902211148 84 62 3.0 9.0 0.00 0.00 0.00 78 1017.5
20260902210642 84 77 4.0 9.0 0.00 0.00 0.00 79 1017.4
20260902210136 84 14 4.0 10.0 0.00 0.00 0.00 79 1017.4
20260902205630 84 338 4.0 10.0 0.00 0.00 0.00 79 1017.6
20260902205124 85 5 4.0 10.0 0.00 0.00 0.00 78 1017.6
20260902204618 85 0 3.0 9.0 0.00 0.00 0.00 78 1017.6
20260902204112 85 333 3.0 9.0 0.00 0.00 0.00 79 1017.5
20260902203605 85 32 4.0 10.0 0.00 0.00 0.00 79 1017.5
20260902203100 85 125 5.0 10.0 0.00 0.00 0.00 78 1017.4
20260902202554 86 38 3.0 10.0 0.00 0.00 0.00 77 1017.2
20260902202048 86 12 2.0 9.0 0.00 0.00 0.00 77 1017.0
20260902201813 86 51 3.0 9.0 0.00 0.00 0.00 77 1016.8
20260902201036 86 140 3.0 9.0 0.00 0.00 0.00 76 1016.8
20260902200530 87 5 3.0 9.0 0.00 0.00 0.00 76 1016.9
20260902200024 87 9 2.0 9.0 0.00 0.00 0.00 77 1016.9
20260902195518 86 111 1.0 6.0 0.00 0.00 0.00 77 1016.8
20260902195012 86 161 2.0 6.0 0.00 0.00 0.00 76 1016.8
20260902194507 87 214 2.0 6.0 0.00 0.00 0.00 76 1016.8
20260902194000 87 69 3.0 9.0 0.00 0.00 0.00 76 1016.8
20260902193454 87 346 3.0 9.0 0.00 0.00 0.00 77 1016.9
20260902192948 87 32 2.0 11.0 0.00 0.00 0.00 77 1016.9
20260902192442 87 42 3.0 11.0 0.00 0.00 0.00 76 1016.9
20260902191936 87 267 4.0 11.0 0.00 0.00 0.00 77 1016.9
20260902191430 87 355 3.0 11.0 0.00 0.00 0.00 77 1016.9
20260902191155 88 109 4.0 10.0 0.00 0.00 0.00 76 1016.9
20260902190418 87 13 4.0 10.0 0.00 0.00 0.00 76 1017.0
20260902185912 87 10 4.0 8.0 0.00 0.00 0.00 76 1017.0
20260902185406 88 335 4.0 8.0 0.00 0.00 0.00 74 1017.1
20260902184859 88 11 2.0 8.0 0.00 0.00 0.00 74 1017.2
20260902184354 88 99 2.0 10.0 0.00 0.00 0.00 73 1017.1
20260902183848 88 62 3.0 10.0 0.00 0.00 0.00 73 1017.1
20260902183342 88 53 3.0 8.0 0.00 0.00 0.00 72 1017.2
20260902182836 88 342 3.0 8.0 0.00 0.00 0.00 73 1017.2
20260902182330 89 9 3.0 8.0 0.00 0.00 0.00 72 1017.2
20260902181824 89 0 3.0 9.0 0.00 0.00 0.00 71 1017.2
20260902181318 89 333 3.0 9.0 0.00 0.00 0.00 72 1017.2
20260902181043 90 137 3.0 8.0 0.00 0.00 0.00 71 1017.2
20260902180306 89 274 3.0 8.0 0.00 0.00 0.00 72 1017.1
20260902175806 89 32 3.0 8.0 0.00 0.00 0.00 73 1017.1
20260902175307 89 304 3.0 8.0 0.00 0.00 0.00 71 1017.2
20260902174806 89 113 4.0 10.0 0.00 0.00 0.00 74 1017.0
20260902174303 89 16 3.0 10.0 0.00 0.00 0.00 72 1017.0
20260902173815 89 9 2.0 8.0 0.00 0.00 0.00 71 1017.0
20260902173303 89 9 4.0 11.0 0.00 0.00 0.00 71 1016.9
20260902172801 89 0 4.0 11.0 0.00 0.00 0.00 71 1016.9
20260902172307 90 31 3.0 7.0 0.00 0.00 0.00 69 1016.9
20260902171802 90 34 2.0 8.0 0.00 0.00 0.00 72 1016.8
20260902171259 90 340 2.0 8.0 0.00 0.00 0.00 72 1016.9
20260902170800 90 28 2.0 8.0 0.00 0.00 0.00 71 1016.9
20260902170312 89 89 3.0 8.0 0.00 0.00 0.00 71 1016.9
20260902165757 89 0 3.0 7.0 0.00 0.00 0.00 72 1016.8
20260902165257 89 16 4.0 9.0 0.00 0.00 0.00 73 1016.9
20260902164757 88 157 4.0 11.0 0.00 0.00 0.00 75 1016.9
20260902164258 89 34 3.0 11.0 0.00 0.00 0.00 74 1016.9
20260902163756 89 95 4.0 10.0 0.00 0.00 0.00 75 1016.9
20260902163254 88 69 4.0 11.0 0.00 0.00 0.00 77 1016.9
20260902162748 88 11 4.0 11.0 0.00 0.00 0.00 76 1017.0
20260902162243 87 53 4.0 10.0 0.00 0.00 0.00 77 1017.1
20260902161736 88 288 3.0 9.0 0.00 0.00 0.00 76 1017.1
20260902161230 89 235 4.0 11.0 0.00 0.00 0.00 73 1017.2
20260902160724 89 22 3.0 11.0 0.00 0.00 0.00 74 1017.2
20260902160231 90 333 2.0 7.0 0.00 0.00 0.00 74 1017.2
20260902155712 89 28 3.0 11.0 0.00 0.00 0.00 74 1017.2
20260902155206 89 62 5.0 11.0 0.00 0.00 0.00 74 1017.2
20260902154931 89 348 5.0 11.0 0.00 0.00 0.00 73 1017.3
20260902154154 89 0 5.0 11.0 0.00 0.00 0.00 72 1017.3
20260902153648 89 5 5.0 12.0 0.00 0.00 0.00 71 1017.3
20260902153142 90 42 5.0 12.0 0.00 0.00 0.00 69 1017.3
20260902152638 91 38 3.0 10.0 0.00 0.00 0.00 69 1017.2
20260902152631 91 30 2.0 5.0 0.00 0.00 0.00 68 1017.0
20260902151624 91 338 1.0 5.0 0.00 0.00 0.00 66 1016.9
20260902151119 91 20 1.0 5.0 0.00 0.00 0.00 67 1016.8
20260902150619 90 345 2.0 3.0 0.00 0.00 0.00 71 1016.8
20260902150119 91 343 1.0 5.0 0.00 0.00 0.00 69 1016.8
20260902145848 90 303 2.0 5.0 0.00 0.00 0.00 69 1016.8
20260902145118 90 43 2.0 7.0 0.00 0.00 0.00 68 1016.7
20260902144847 90 332 2.0 7.0 0.00 0.00 0.00 69 1016.7
20260902144110 90 293 1.0 5.0 0.00 0.00 0.00 68 1016.7
20260902143604 89 191 1.0 4.0 0.00 0.00 0.00 69 1016.7
20260902143102 89 15 2.0 6.0 0.00 0.00 0.00 69 1016.6
20260902143055 89 0 1.0 6.0 0.00 0.00 0.00 72 1016.6
20260902142046 89 5 1.0 4.0 0.00 0.00 0.00 72 1016.6
20260902141540 88 196 1.0 4.0 0.00 0.00 0.00 73 1016.5
20260902141034 87 17 1.0 3.0 0.00 0.00 0.00 72 1016.4
20260902140528 87 309 0.0 3.0 0.00 0.00 0.00 75 1016.4
20260902140024 87 181 0.0 0.0 0.00 0.00 0.00 76 1016.4
20260902135516 86 97 1.0 4.0 0.00 0.00 0.00 76 1016.4
20260902135010 86 44 2.0 6.0 0.00 0.00 0.00 75 1016.4
20260902134517 85 299 1.0 6.0 0.00 0.00 0.00 77 1016.4
20260902134230 85 78 1.0 5.0 0.00 0.00 0.00 78 1016.4
20260902133452 84 0 1.0 5.0 0.00 0.00 0.00 79 1016.4
20260902132946 83 355 1.0 5.0 0.00 0.00 0.00 81 1016.4
20260902132440 82 265 1.0 4.0 0.00 0.00 0.00 82 1016.4
20260902131934 81 344 1.0 4.0 0.00 0.00 0.00 82 1016.4
20260902131427 81 5 1.0 3.0 0.00 0.00 0.00 83 1016.5
20260902130922 81 5 0.0 3.0 0.00 0.00 0.00 83 1016.6
20260902130415 80 329 1.0 2.0 0.00 0.00 0.00 84 1016.6
20260902125910 80 347 1.0 4.0 0.00 0.00 0.00 84 1016.6
20260902125404 80 163 1.0 4.0 0.00 0.00 0.00 85 1016.5
20260902124858 80 28 1.0 4.0 0.00 0.00 0.00 85 1016.5
20260902124355 79 346 1.0 4.0 0.00 0.00 0.00 85 1016.4
20260902124348 79 319 1.0 3.0 0.00 0.00 0.00 85 1016.4
20260902123339 79 342 0.0 2.0 0.00 0.00 0.00 86 1016.3
20260902122834 79 172 0.0 0.0 0.00 0.00 0.00 86 1016.3
20260902122328 78 209 0.0 0.0 0.00 0.00 0.00 86 1016.4
20260902122053 78 239 0.0 0.0 0.00 0.00 0.00 86 1016.5
20260902121316 78 267 0.0 0.0 0.00 0.00 0.00 86 1016.4
20260902120810 78 209 0.0 0.0 0.00 0.00 0.00 86 1016.4
20260902120305 78 151 0.0 0.0 0.00 0.00 0.00 86 1016.4
20260902115758 78 174 0.0 0.0 0.00 0.00 0.00 86 1016.2
20260902115251 77 20 0.0 0.0 0.00 0.00 0.00 86 1016.3
20260902114746 77 20 0.0 0.0 0.00 0.00 0.00 86 1016.2
20260902114240 77 20 0.0 0.0 0.00 0.00 0.00 86 1016.1
20260902114005 77 20 0.0 0.0 0.00 0.00 0.00 85 1016.0
20260902113228 77 20 0.0 0.0 0.00 0.00 0.00 85 1016.0
20260902112722 77 20 0.0 0.0 0.00 0.00 0.00 85 1016.0
20260902112216 76 20 0.0 0.0 0.00 0.00 0.00 85 1016.0
20260902111710 76 20 0.0 0.0 0.00 0.00 0.00 85 1016.0
20260902111204 76 20 0.0 0.0 0.00 0.00 0.00 85 1016.1
20260902110928 76 177 0.0 0.0 0.00 0.00 0.00 85 1016.0
20260902110153 76 189 0.0 0.0 0.00 0.00 0.00 85 1015.9
20260902105646 77 189 0.0 0.0 0.00 0.00 0.00 85 1016.0
20260902105140 77 189 0.0 0.0 0.00 0.00 0.00 85 1016.0
20260902104634 76 190 0.0 0.0 0.00 0.00 0.00 85 1016.1
20260902104128 77 93 0.0 0.0 0.00 0.00 0.00 85 1016.2
20260902103853 76 93 0.0 0.0 0.00 0.00 0.00 85 1016.4
20260902103116 77 93 0.0 0.0 0.00 0.00 0.00 85 1016.4
20260902102610 76 260 0.0 2.0 0.00 0.00 0.00 85 1016.3
20260902102104 76 260 1.0 7.0 0.00 0.00 0.00 85 1016.2
20260902101558 76 30 3.0 8.0 0.00 0.00 0.00 85 1016.5
20260902101052 76 30 2.0 8.0 0.00 0.00 0.00 84 1016.6
20260902100547 76 30 0.0 4.0 0.00 0.00 0.00 83 1016.2
20260902100541 76 192 0.0 0.0 0.00 0.00 0.00 83 1015.9
20260902095534 76 192 0.0 0.0 0.00 0.00 0.00 83 1015.8
20260902095028 76 192 0.0 0.0 0.00 0.00 0.00 83 1015.7
20260902094754 76 192 0.0 0.0 0.00 0.00 0.00 83 1015.7
20260902094246 77 192 0.0 0.0 0.00 0.00 0.00 83 1015.7
20260902093523 77 192 0.0 0.0 0.00 0.00 0.00 82 1015.6
20260902093004 77 192 0.0 0.0 0.00 0.00 0.00 82 1015.7
20260902092458 77 192 0.0 0.0 0.00 0.00 0.00 82 1015.7
20260902091952 77 192 0.0 0.0 0.00 0.00 0.00 82 1015.7
20260902091446 77 192 0.0 0.0 0.00 0.00 0.00 82 1015.7
20260902090940 77 192 0.0 0.0 0.00 0.00 0.00 82 1015.6
20260902090704 77 192 0.0 0.0 0.00 0.00 0.00 82 1015.6
20260902090031 77 192 0.0 0.0 0.00 0.00 0.00 82 1015.6
20260902084916 77 210 0.0 0.0 0.00 0.00 0.00 81 1015.5
20260902084512 77 210 0.0 0.0 0.00 0.00 0.00 81 1015.4
20260902083358 78 210 0.0 0.0 0.00 0.00 0.00 81 1015.5
20260902082852 78 210 0.0 0.0 0.00 0.00 0.00 81 1015.6
20260902082345 78 210 0.0 0.0 0.00 0.00 0.00 81 1015.7
20260902081840 78 210 0.0 0.0 0.00 0.00 0.00 81 1015.7
20260902081605 78 210 0.0 0.0 0.00 0.00 0.00 81 1015.7
20260902080828 78 210 0.0 0.0 0.00 0.00 0.00 81 1015.6
20260902080322 78 210 0.0 0.0 0.00 0.00 0.00 81 1015.5
20260902075816 78 210 0.0 0.0 0.00 0.00 0.00 81 1015.6
20260902075309 78 210 0.0 0.0 0.00 0.00 0.00 81 1015.6
20260902074804 78 210 0.0 0.0 0.00 0.00 0.00 81 1015.6
20260902074258 78 210 0.0 0.0 0.00 0.00 0.00 81 1015.8
20260902073855 79 210 0.0 0.0 0.00 0.00 0.00 81 1015.8
20260902072740 79 210 0.0 0.0 0.00 0.00 0.00 81 1015.8
20260902072234 79 210 0.0 0.0 0.00 0.00 0.00 81 1015.8
20260902071728 79 210 0.0 0.0 0.00 0.00 0.00 81 1015.8
20260902071222 79 210 0.0 0.0 0.00 0.00 0.00 81 1015.8
20260902070716 79 210 0.0 0.0 0.00 0.00 0.00 81 1015.8
20260902070210 79 210 0.0 0.0 0.00 0.00 0.00 81 1015.9
20260902065934 79 210 0.0 0.0 0.00 0.00 0.00 81 1015.9
20260902065158 79 210 0.0 0.0 0.00 0.00 0.00 81 1015.9
20260902064923 79 210 0.0 0.0 0.00 0.00 0.00 82 1015.9
20260902064146 79 210 0.0 0.0 0.00 0.00 0.00 82 1015.9